Showing default

LAPAN A3, 41603

Orbit data source: Space-Track

LAPAN A3, 41603 is a payload satellite owned by LAPAN (ID) in SSO that was launched on Wed, 22 Jun 2016 UTC via a PSLV-XL launch vehicle from the Sirharikota (SRI). Payload-class satellites include a variety of spacecraft equipped with specific instruments for various scientific and technological missions. These include communications satellites like Starlink; space stations such as the ISS; scientific satellites like the Hubble; Earth observation satellites from companies like Planet Labs, Umbra, and HawkEye 360; GPS; miniature CubeSats for education and research; and military/defense satellites.

Loading next visibility...
Identifier
41603, 2016-040E
Orbit
SSO
Country
Flag of UnknownUnknown / INDO
Related business
Manufacturer
LAPAN
Mission
Operational Civil Imaging
Bus & Motor
TUBSAT, Unknown motor
Mass
120 kg wet, 120 kg dry
Launch date (UTC)
2016-06-22 (9 years ago)
Launch vehicle
PSLV-XL
Launch site
Sirharikota (SRI)
Object type
Payload
Rocket body
Debris
Shape & HBR
Box, 0.3 m
Radar Cross Section
0.225 m², Medium (>0.1 m² and < 1m²)

Expand to show TLE details & history
Last TLE update: 17 hours ago

TLE from 17 hours ago
0 LAPAN A3
1 41603U 16040E   25242.31283854  .00005132  00000-0  17693-3 0  9994
2 41603  97.1413 243.7518 0010187 348.2732  11.8271 15.30379358510287
Epoch: 2025-08-30T07:30Z
TLE epoch observation values (Epoch: 2025-08-30T07:30:29.249Z)
Latitude
-0.00001°
Longitude
152.381°
Altitude
470.957 km
Speed
7.634 km/s
True Right ascension
16h 15m 00s
True Declination
0° 00' 00"
Sunlit
Object was in daylight at epoch
Visualization orbit readout
Latitude
Unknown
Longitude
Unknown
Altitude
Unknown
Speed
Unknown
Apparent Right ascension
Unknown
Apparent Declination
Unknown
Sunlit
N/A
Visualization observer readout
Local Sidereal Time
15:57:54
Azimuth
Unknown
Elevation
Unknown
Doppler factor
Unknown
Orbital elements
Apogee altitude
478.598 km
Perigee altitude
464.643 km
Semi-major axis
6,849.757 km
Eccentricity
0.00102
Inclination
97.1413°
RAAN
243.7518°
Arg. of periapsis
348.2732°
True anomaly
11.85106°
Mean anomaly
11.8271°
Eccentric anomaly
11.83907°
Mean motion
3.82852 °/min
Orbital period
94.03 mins
BSTAR
0.00017693
Loading maneuver chart data...
Computing Atmospheric mass density...
Loading historical data...
Loading historical data...
Loading historical data...
Loading historical data...
Loading historical data...
Loading historical data...
Loading historical data...

Documentation

Showing up to 5 results
|